CES8185 ZSPD-ZBAA

Flight info

Callsign CES8185
Flight time N/A
Altitude 36100
Route PIK81D/17L PIKAS G330 PIMOL A593 DALIM W157 BEKDO/K0845S1130 W157 AVBOX AVBOX6J
Aircraft A320/M-SDE3FGHIRWY/LB1

Departure

Time N/A
Airport Shanghai Pudong International Airport (ZSPD)

Arrival

Time 2026-05-05 16:16
Airport Beijing Capital International Airport (ZBAA)
Time Latitude Longitude Altitude Speed Heading
2026-05-05 14:56 33.60436 118.58678 36036 ft 411 kts 326°
2026-05-05 14:56 33.65036 118.54677 36032 ft 410 kts 326°
2026-05-05 14:57 33.69676 118.50638 36036 ft 410 kts 326°
2026-05-05 14:57 33.74265 118.46635 36038 ft 409 kts 326°
2026-05-05 14:58 33.78856 118.42625 36032 ft 407 kts 326°
2026-05-05 14:58 33.83416 118.38634 36032 ft 406 kts 326°
2026-05-05 14:59 33.87961 118.34655 36032 ft 405 kts 325°
2026-05-05 14:59 33.92530 118.30644 36030 ft 405 kts 326°
2026-05-05 15:00 33.96330 118.27306 36029 ft 404 kts 326°
2026-05-05 15:00 34.01615 118.22701 36025 ft 403 kts 326°
2026-05-05 15:01 34.06177 118.18728 36028 ft 402 kts 326°
2026-05-05 15:01 34.10683 118.14801 36027 ft 400 kts 326°
2026-05-05 15:02 34.15211 118.10857 36024 ft 399 kts 326°
2026-05-05 15:02 34.19700 118.06941 36026 ft 398 kts 326°
2026-05-05 15:03 34.24315 118.03305 36027 ft 398 kts 331°
2026-05-05 15:03 34.29189 118.00211 36027 ft 396 kts 335°
2026-05-05 15:04 34.34290 117.97678 36018 ft 395 kts 340°
2026-05-05 15:04 34.39523 117.95675 36023 ft 396 kts 343°
2026-05-05 15:05 34.47455 117.92829 36023 ft 396 kts 343°
2026-05-05 15:06 34.52722 117.90942 36024 ft 394 kts 342°
2026-05-05 15:06 34.57969 117.89072 36031 ft 394 kts 342°
2026-05-05 15:07 34.63224 117.87180 36022 ft 393 kts 343°
2026-05-05 15:07 34.68470 117.85284 36147 ft 392 kts 342°
2026-05-05 15:08 34.73663 117.83415 36035 ft 391 kts 343°
2026-05-05 15:08 34.78863 117.81544 36022 ft 390 kts 343°
2026-05-05 15:09 34.84063 117.79662 36014 ft 389 kts 342°
2026-05-05 15:09 34.89254 117.77763 36015 ft 388 kts 343°
2026-05-05 15:10 34.94422 117.75876 36023 ft 389 kts 342°
2026-05-05 15:10 34.99593 117.73981 36015 ft 388 kts 342°
2026-05-05 15:11 35.04767 117.72086 36015 ft 389 kts 343°
2026-05-05 15:11 35.09911 117.70200 36016 ft 387 kts 343°
2026-05-05 15:12 35.15122 117.68292 36011 ft 388 kts 343°
2026-05-05 15:12 35.20284 117.66400 36017 ft 388 kts 343°
2026-05-05 15:13 35.25417 117.64516 36004 ft 385 kts 342°
2026-05-05 15:13 35.30551 117.62627 36001 ft 385 kts 343°
2026-05-05 15:14 35.35688 117.60735 35993 ft 385 kts 343°
2026-05-05 15:14 35.40811 117.58843 35991 ft 385 kts 343°
2026-05-05 15:15 35.45935 117.56951 35988 ft 385 kts 342°
2026-05-05 15:15 35.51043 117.55059 35988 ft 383 kts 343°
2026-05-05 15:16 35.56157 117.53166 35982 ft 383 kts 342°
2026-05-05 15:16 35.61233 117.51277 35986 ft 383 kts 342°
2026-05-05 15:17 35.66350 117.49379 35982 ft 383 kts 342°
2026-05-05 15:17 35.71418 117.47489 35978 ft 382 kts 342°
2026-05-05 15:18 35.76502 117.45592 35978 ft 382 kts 342°
2026-05-05 15:18 35.81594 117.43690 35974 ft 382 kts 342°
2026-05-05 15:19 35.86687 117.41787 35974 ft 382 kts 342°
2026-05-05 15:19 35.91760 117.39887 35972 ft 381 kts 342°
2026-05-05 15:20 35.96827 117.37985 35967 ft 381 kts 341°
2026-05-05 15:20 36.01874 117.36099 35969 ft 381 kts 342°
2026-05-05 15:21 36.06969 117.34219 35970 ft 380 kts 342°
2026-05-05 15:21 36.12053 117.32346 35972 ft 381 kts 341°
2026-05-05 15:22 36.17133 117.30469 35956 ft 381 kts 341°
2026-05-05 15:22 36.22239 117.28571 35951 ft 381 kts 341°
2026-05-05 15:23 36.27348 117.26675 35950 ft 382 kts 341°
2026-05-05 15:23 36.32461 117.24776 35951 ft 382 kts 341°
2026-05-05 15:24 36.37534 117.22885 35952 ft 381 kts 341°
2026-05-05 15:24 36.42583 117.20819 35950 ft 382 kts 338°
2026-05-05 15:25 36.47480 117.18340 35961 ft 381 kts 336°
2026-05-05 15:25 36.52394 117.15797 35947 ft 382 kts 336°
2026-05-05 15:26 36.57276 117.13262 35937 ft 382 kts 336°
2026-05-05 15:26 36.62181 117.10709 35930 ft 381 kts 336°
2026-05-05 15:27 36.67077 117.08151 35921 ft 382 kts 336°
2026-05-05 15:27 36.71995 117.05583 35907 ft 382 kts 336°
2026-05-05 15:28 36.76951 117.02988 35904 ft 382 kts 336°
2026-05-05 15:28 36.81839 117.00428 35884 ft 383 kts 336°
2026-05-05 15:29 36.86724 116.97866 35892 ft 382 kts 336°
2026-05-05 15:29 36.91631 116.95290 35891 ft 384 kts 335°
2026-05-05 15:30 36.96550 116.92696 35898 ft 383 kts 335°
2026-05-05 15:30 37.01463 116.90105 35900 ft 383 kts 335°
2026-05-05 15:31 37.06377 116.87511 35887 ft 383 kts 335°
2026-05-05 15:31 37.11270 116.84925 35878 ft 383 kts 335°
2026-05-05 15:32 37.16206 116.82311 35867 ft 384 kts 335°
2026-05-05 15:32 37.21157 116.79775 35866 ft 384 kts 338°
2026-05-05 15:33 37.26246 116.77707 35863 ft 385 kts 340°
2026-05-05 15:33 37.31371 116.75764 35859 ft 385 kts 341°
2026-05-05 15:34 37.36503 116.73824 35853 ft 385 kts 340°
2026-05-05 15:34 37.41606 116.71893 35850 ft 385 kts 340°
2026-05-05 15:35 37.46746 116.69945 35855 ft 385 kts 340°
2026-05-05 15:35 37.51884 116.67995 35851 ft 385 kts 340°
2026-05-05 15:36 37.56986 116.66052 35850 ft 386 kts 340°
2026-05-05 15:36 37.62117 116.64099 35852 ft 386 kts 340°
2026-05-05 15:37 37.67270 116.62135 35725 ft 386 kts 340°
2026-05-05 15:37 37.69845 116.61153 35429 ft 385 kts 340°
2026-05-05 15:37 37.72390 116.60178 35139 ft 383 kts 340°
2026-05-05 15:37 37.74947 116.59201 34849 ft 382 kts 340°
2026-05-05 15:38 37.77461 116.58237 34563 ft 381 kts 340°
2026-05-05 15:38 37.80009 116.57262 34274 ft 382 kts 340°
2026-05-05 15:38 37.82568 116.56278 33985 ft 384 kts 340°
2026-05-05 15:38 37.85110 116.55303 33698 ft 385 kts 340°
2026-05-05 15:39 37.87690 116.54315 33438 ft 388 kts 340°
2026-05-05 15:39 37.90269 116.53283 33179 ft 389 kts 338°
2026-05-05 15:39 37.92810 116.52097 32920 ft 390 kts 336°
2026-05-05 15:39 37.95312 116.50752 32664 ft 392 kts 333°
2026-05-05 15:40 37.97762 116.49254 32407 ft 393 kts 330°
2026-05-05 15:40 38.00159 116.47598 32152 ft 395 kts 328°
2026-05-05 15:40 38.02503 116.45779 31893 ft 397 kts 326°
2026-05-05 15:40 38.04795 116.43797 31536 ft 400 kts 323°
2026-05-05 15:41 38.07072 116.41740 30911 ft 403 kts 323°
2026-05-05 15:41 38.09328 116.39682 30092 ft 406 kts 322°
2026-05-05 15:41 38.11621 116.37579 29159 ft 412 kts 322°
2026-05-05 15:41 38.13955 116.35435 28211 ft 418 kts 322°
2026-05-05 15:42 38.16322 116.33256 27241 ft 424 kts 321°
2026-05-05 15:42 38.18726 116.31043 26575 ft 422 kts 321°
2026-05-05 15:42 38.21071 116.28887 25978 ft 419 kts 321°
2026-05-05 15:42 38.23504 116.26859 25351 ft 421 kts 330°
2026-05-05 15:43 38.26299 116.25725 24761 ft 426 kts 347°
2026-05-05 15:43 38.29297 116.25655 24140 ft 434 kts
2026-05-05 15:43 38.32243 116.26500 23561 ft 436 kts 11°
2026-05-05 15:43 38.35160 116.27510 22987 ft 435 kts 11°
2026-05-05 15:44 38.38103 116.28542 22403 ft 433 kts 11°
2026-05-05 15:44 38.40998 116.29554 21853 ft 430 kts 11°
2026-05-05 15:44 38.43838 116.30540 21325 ft 427 kts 11°
2026-05-05 15:44 38.46717 116.31538 20788 ft 424 kts 11°
2026-05-05 15:45 38.49555 116.32519 20250 ft 421 kts 12°
2026-05-05 15:45 38.52352 116.33486 19717 ft 419 kts 12°
2026-05-05 15:45 38.55173 116.34460 19176 ft 416 kts 12°
2026-05-05 15:45 38.57923 116.35412 18649 ft 413 kts 12°
2026-05-05 15:46 38.60697 116.36372 18115 ft 411 kts 12°
2026-05-05 15:46 38.63372 116.37618 17556 ft 412 kts 26°
2026-05-05 15:46 38.65646 116.39837 17126 ft 413 kts 45°
2026-05-05 15:46 38.67353 116.42832 17145 ft 417 kts 56°
2026-05-05 15:47 38.68859 116.45966 17169 ft 418 kts 57°
2026-05-05 15:47 38.69878 116.48115 17186 ft 418 kts 57°
2026-05-05 15:47 38.71883 116.52329 17220 ft 418 kts 57°
2026-05-05 15:47 38.73396 116.55488 17246 ft 419 kts 56°
2026-05-05 15:48 38.74936 116.58690 17272 ft 419 kts 56°
2026-05-05 15:48 38.76464 116.61860 17296 ft 419 kts 56°
2026-05-05 15:48 38.78026 116.65098 17325 ft 418 kts 57°
2026-05-05 15:48 38.79577 116.68316 17350 ft 418 kts 57°
2026-05-05 15:49 38.81123 116.71527 17376 ft 419 kts 57°
2026-05-05 15:49 38.82639 116.74677 17390 ft 420 kts 57°
2026-05-05 15:49 38.84177 116.77873 17394 ft 419 kts 57°
2026-05-05 15:49 38.85702 116.81046 17397 ft 419 kts 57°
2026-05-05 15:50 38.87231 116.84229 17399 ft 420 kts 57°
2026-05-05 15:50 38.88756 116.87411 17400 ft 421 kts 57°
2026-05-05 15:50 38.90299 116.90629 17402 ft 421 kts 57°
2026-05-05 15:50 38.91820 116.93806 17401 ft 420 kts 57°
2026-05-05 15:51 38.93341 116.96989 17413 ft 420 kts 56°
2026-05-05 15:51 38.94865 117.00187 17414 ft 420 kts 56°
2026-05-05 15:51 38.96392 117.03383 17402 ft 419 kts 57°
2026-05-05 15:51 38.97928 117.06606 17411 ft 419 kts 56°
2026-05-05 15:52 38.99451 117.09804 17413 ft 419 kts 56°
2026-05-05 15:52 39.01111 117.12845 17391 ft 416 kts 43°
2026-05-05 15:52 39.03411 117.14961 17401 ft 408 kts 21°
2026-05-05 15:52 39.06130 117.15892 17385 ft 400 kts
2026-05-05 15:53 39.08885 117.15593 17397 ft 394 kts 342°
2026-05-05 15:53 39.11467 117.14475 17414 ft 393 kts 337°
2026-05-05 15:53 39.14060 117.13281 17414 ft 394 kts 337°
2026-05-05 15:53 39.16662 117.12093 17415 ft 393 kts 338°
2026-05-05 15:54 39.19244 117.10925 17413 ft 393 kts 338°
2026-05-05 15:54 39.21830 117.09764 17411 ft 393 kts 338°
2026-05-05 15:54 39.24399 117.08615 17412 ft 393 kts 338°
2026-05-05 15:54 39.26973 117.07466 17421 ft 392 kts 338°
2026-05-05 15:55 39.29557 117.06313 17405 ft 393 kts 338°
2026-05-05 15:55 39.32160 117.05148 17405 ft 393 kts 338°
2026-05-05 15:55 39.34735 117.03999 17406 ft 393 kts 338°
2026-05-05 15:55 39.37335 117.02837 17403 ft 393 kts 338°
2026-05-05 15:56 39.39914 117.01683 17402 ft 392 kts 338°
2026-05-05 15:56 39.42495 117.00528 17405 ft 393 kts 338°
2026-05-05 15:56 39.45053 116.99380 17401 ft 393 kts 338°
2026-05-05 15:56 39.47652 116.98214 17395 ft 393 kts 338°
2026-05-05 15:57 39.50215 116.97064 17397 ft 393 kts 338°
2026-05-05 15:57 39.51658 116.96418 17396 ft 392 kts 338°
2026-05-05 15:57 39.54242 116.95255 17395 ft 392 kts 337°
2026-05-05 15:57 39.56838 116.94087 17394 ft 393 kts 338°
2026-05-05 15:58 39.59448 116.92980 17393 ft 394 kts 340°
2026-05-05 15:58 39.62112 116.92124 17394 ft 396 kts 345°
2026-05-05 15:58 39.64839 116.91532 17395 ft 398 kts 349°
2026-05-05 15:58 39.67596 116.91093 17385 ft 398 kts 349°
2026-05-05 15:59 39.70353 116.90682 17025 ft 399 kts 349°
2026-05-05 15:59 39.73110 116.90271 16343 ft 399 kts 350°
2026-05-05 15:59 39.74876 116.90007 15950 ft 398 kts 350°
2026-05-05 15:59 39.75925 116.89851 15728 ft 397 kts 350°
2026-05-05 16:00 39.78639 116.89445 15200 ft 393 kts 350°
2026-05-05 16:00 39.81337 116.89038 14679 ft 388 kts 350°
2026-05-05 16:00 39.84012 116.88632 14144 ft 385 kts 350°
2026-05-05 16:00 39.86630 116.88234 13636 ft 381 kts 350°
2026-05-05 16:01 39.89252 116.87839 13119 ft 377 kts 350°
2026-05-05 16:01 39.91872 116.87441 12589 ft 375 kts 350°
2026-05-05 16:01 39.94431 116.87051 12045 ft 373 kts 350°
2026-05-05 16:01 39.97007 116.86656 11485 ft 372 kts 350°
2026-05-05 16:02 39.99546 116.86263 11169 ft 361 kts 348°
2026-05-05 16:02 40.01877 116.85326 10904 ft 342 kts 326°
2026-05-05 16:02 40.03522 116.83270 10684 ft 322 kts 299°
2026-05-05 16:02 40.04293 116.80620 10422 ft 308 kts 277°
2026-05-05 16:03 40.04459 116.77896 10284 ft 295 kts 275°
2026-05-05 16:03 40.05119 116.75424 10044 ft 289 kts 304°
2026-05-05 16:03 40.06618 116.73727 9915 ft 285 kts 329°
2026-05-05 16:03 40.08515 116.72990 9553 ft 291 kts 349°
2026-05-05 16:04 40.10515 116.72713 9201 ft 291 kts 350°
2026-05-05 16:04 40.12534 116.72437 8838 ft 291 kts 350°
2026-05-05 16:04 40.14529 116.72150 8482 ft 291 kts 350°
2026-05-05 16:04 40.16563 116.71847 8105 ft 291 kts 349°
2026-05-05 16:05 40.18579 116.71538 7747 ft 290 kts 349°
2026-05-05 16:05 40.20595 116.71227 7398 ft 290 kts 349°
2026-05-05 16:05 40.22582 116.70921 7059 ft 289 kts 349°
2026-05-05 16:05 40.24584 116.70610 6717 ft 288 kts 349°
2026-05-05 16:06 40.26574 116.70300 6389 ft 288 kts 349°
2026-05-05 16:06 40.28561 116.69991 6064 ft 287 kts 349°
2026-05-05 16:06 40.30544 116.69683 5864 ft 280 kts 349°
2026-05-05 16:06 40.32426 116.69395 5781 ft 268 kts 349°
2026-05-05 16:07 40.34243 116.69115 5696 ft 257 kts 349°
2026-05-05 16:07 40.35924 116.68553 5544 ft 239 kts 321°
2026-05-05 16:07 40.36924 116.67052 5399 ft 213 kts 282°
2026-05-05 16:07 40.37073 116.65217 5133 ft 200 kts 256°
2026-05-05 16:08 40.36844 116.63429 4891 ft 200 kts 255°
2026-05-05 16:08 40.36624 116.61598 4645 ft 207 kts 256°
2026-05-05 16:08 40.36390 116.59703 4363 ft 212 kts 249°
2026-05-05 16:08 40.35648 116.58137 4070 ft 203 kts 217°
2026-05-05 16:09 40.34365 116.57372 3728 ft 205 kts 188°
2026-05-05 16:09 40.32940 116.57485 3402 ft 206 kts 175°
2026-05-05 16:09 40.31513 116.57734 3079 ft 207 kts 175°
2026-05-05 16:09 40.30134 116.57958 2873 ft 193 kts 175°
2026-05-05 16:10 40.28845 116.58162 2973 ft 177 kts 175°
2026-05-05 16:10 40.27705 116.58343 2949 ft 151 kts 176°
2026-05-05 16:10 40.26702 116.58501 2935 ft 145 kts 176°
2026-05-05 16:10 40.25664 116.58662 2973 ft 151 kts 177°
2026-05-05 16:11 40.24616 116.58824 3001 ft 151 kts 177°
2026-05-05 16:11 40.21500 116.59315 2598 ft 146 kts 177°
2026-05-05 16:12 40.20502 116.59473 2383 ft 141 kts 176°
2026-05-05 16:12 40.18923 116.59718 2066 ft 140 kts 175°
2026-05-05 16:13 40.16028 116.60170 1503 ft 139 kts 173°
2026-05-05 16:13 40.15076 116.60319 1312 ft 138 kts 173°
2026-05-05 16:13 40.14118 116.60471 1122 ft 138 kts 173°
2026-05-05 16:14 40.12215 116.60770 738 ft 137 kts 173°
2026-05-05 16:14 40.10326 116.61070 363 ft 135 kts 174°
2026-05-05 16:15 40.08500 116.61350 142 ft 124 kts 174°
2026-05-05 16:15 40.07250 116.61546 123 ft 59 kts 174°
2026-05-05 16:16 40.06826 116.61516 122 ft 12 kts 203°
2026-05-05 16:16 40.06806 116.61505 122 ft 2 kts 203°
2026-05-05 16:17 40.06752 116.61423 122 ft 11 kts 283°
2026-05-05 16:17 40.06830 116.61376 122 ft 10 kts 353°
2026-05-05 16:18 40.06906 116.61252 122 ft 9 kts 340°
2026-05-05 16:18 40.06951 116.61187 122 ft 12 kts 270°
2026-05-05 16:18 40.06959 116.60983 122 ft 11 kts 335°
2026-05-05 16:19 40.07044 116.60962 122 ft 13 kts 353°
2026-05-05 16:19 40.07148 116.60945 122 ft 15 kts 353°
2026-05-05 16:19 40.07241 116.60877 122 ft 8 kts 266°
2026-05-05 16:20 40.07221 116.60787 122 ft 0 kts 245°
2026-05-05 16:20 40.07220 116.60785 122 ft 0 kts 245°